Siloam Springs, AR

1:48 PM CST on January 19, 2018 (GMT -0600)
Smith

Weather History for KSLG - September, 2012

Change the Weather History Date:

Wednesday, September 26, 2012

  Actual Average Record
Temperature  
Mean Temperature 72 °F -  
Max Temperature 78 °F 74 °F 86 °F (2013)
Min Temperature 66 °F 52 °F 35 °F (2000)
Cooling Degree Days 7    
Growing Degree Days 22 (Base 50)    
Moisture  
Dew Point 62 °F    
Average Humidity 69    
Maximum Humidity 88    
Minimum Humidity 53    
Precipitation  
Precipitation 0.01 in - - ()
Sea Level Pressure  
Sea Level Pressure 30.02 in    
Wind  
Wind Speed 11 mph (SSE)    
Max Wind Speed 16 mph    
Max Gust Speed 23 mph    
Visibility 10 miles    
Events      
Averages and records for this station are not official NWS values.
T = Trace of Precipitation, MM = Missing Value Source: NWS Daily Summary

Daily Weather History Graph

Daily Weather History Graph

Search for Another Location

Airport or City:

Trip Planner

Search our weather history database for the weather conditions in past years. The results will help you decide how hot, cold, wet, or windy it might be!

Date:

Astronomy

Sep. 26, 2012 Rise Set
Actual Time 7:09 AM CDT 7:08 PM CDT
Civil Twilight 6:43 AM CDT 7:33 PM CDT
Nautical Twilight 6:13 AM CDT 8:03 PM CDT
Astronomical Twilight 5:43 AM CDT 8:33 PM CDT
Moon 5:03 PM CDT (9/26) 3:41 AM CDT (9/26)
Length of Visible Light 12h 49m
Length of Day
11h 58m
Waxing Gibbous, 88% of the Moon is Illuminated
Sep 26
Waxing Gibbous
Sep 29
Full
Oct 8
Last Quarter
Oct 15
New
Oct 21
First Quarter

Hourly Weather History & Observations

Time (CDT) Temp. Dew Point Humidity Pressure Visibility Wind Dir Wind Speed Gust Speed Precip Events Conditions
12:15 AM 75.2 °F 57.2 °F 53% 29.93 in 10.0 mi South 15.0 mph 20.7 mph N/A   Clear
12:35 AM 75.2 °F 59.0 °F 57% 29.93 in 10.0 mi South 13.8 mph 19.6 mph N/A   Clear
12:55 AM 75.2 °F 59.0 °F 57% 29.93 in 10.0 mi South 16.1 mph - N/A   Clear
1:15 AM 75.2 °F 59.0 °F 57% 29.94 in 10.0 mi South 15.0 mph 23.0 mph N/A   Clear
1:35 AM 75.2 °F 60.8 °F 61% 29.94 in 10.0 mi South 13.8 mph 18.4 mph N/A   Clear
1:55 AM 75.2 °F 60.8 °F 61% 29.94 in 10.0 mi South 16.1 mph 21.9 mph N/A   Clear
2:15 AM 75.2 °F 60.8 °F 61% 29.94 in 10.0 mi South 15.0 mph 21.9 mph N/A   Partly Cloudy
2:35 AM 75.2 °F 60.8 °F 61% 29.94 in 10.0 mi South 15.0 mph 21.9 mph N/A   Partly Cloudy
2:55 AM 75.2 °F 60.8 °F 61% 29.94 in 10.0 mi South 16.1 mph 20.7 mph N/A   Clear
3:15 AM 73.4 °F 60.8 °F 65% 29.95 in 10.0 mi South 11.5 mph - N/A   Clear
3:35 AM 73.4 °F 60.8 °F 65% 29.94 in 10.0 mi South 11.5 mph - N/A   Clear
3:55 AM 73.4 °F 60.8 °F 65% 29.94 in 10.0 mi South 10.4 mph - N/A   Clear
4:15 AM 73.4 °F 60.8 °F 65% 29.94 in 10.0 mi South 11.5 mph 17.3 mph N/A   Clear
4:35 AM 73.4 °F 60.8 °F 65% 29.94 in 10.0 mi South 11.5 mph - N/A   Clear
4:55 AM 73.4 °F 60.8 °F 65% 29.95 in 10.0 mi South 6.9 mph - N/A   Clear
5:15 AM 71.6 °F 60.8 °F 69% 29.96 in 10.0 mi South 4.6 mph - N/A   Scattered Clouds
5:35 AM 71.6 °F 60.8 °F 69% 29.98 in 10.0 mi SW 6.9 mph - N/A   Mostly Cloudy
5:55 AM 73.4 °F 60.8 °F 65% 29.98 in 10.0 mi SSW 6.9 mph - N/A   Scattered Clouds
6:15 AM 71.6 °F 60.8 °F 69% 29.98 in 10.0 mi South 4.6 mph - N/A   Mostly Cloudy
6:35 AM 71.6 °F 60.8 °F 69% 29.99 in 10.0 mi South 5.8 mph - N/A   Mostly Cloudy
6:55 AM 71.6 °F 60.8 °F 69% 29.99 in 10.0 mi South 8.1 mph - N/A   Scattered Clouds
7:35 AM 69.8 °F 60.8 °F 73% 30.00 in 10.0 mi SSW 5.8 mph - N/A   Mostly Cloudy
7:55 AM 71.6 °F 62.6 °F 73% 30.00 in 10.0 mi South 5.8 mph - N/A   Mostly Cloudy
8:15 AM 71.6 °F 62.6 °F 73% 30.01 in 10.0 mi South 5.8 mph - N/A   Mostly Cloudy
8:35 AM 71.6 °F 62.6 °F 73% 30.01 in 10.0 mi South 8.1 mph - N/A   Partly Cloudy
8:55 AM 71.6 °F 62.6 °F 73% 30.02 in 10.0 mi SSW 10.4 mph - N/A   Partly Cloudy
9:15 AM 73.4 °F 62.6 °F 69% 30.03 in 10.0 mi South 12.7 mph - N/A   Scattered Clouds
9:35 AM 75.2 °F 62.6 °F 65% 30.04 in 10.0 mi SSW 12.7 mph 18.4 mph N/A   Partly Cloudy
9:55 AM 75.2 °F 64.4 °F 69% 30.05 in 10.0 mi SSW 12.7 mph - N/A   Clear
10:15 AM 77.0 °F 62.6 °F 61% 30.05 in 10.0 mi SSW 13.8 mph - N/A   Scattered Clouds
10:35 AM 78.8 °F 62.6 °F 57% 30.06 in 10.0 mi SW 15.0 mph - N/A   Scattered Clouds
10:55 AM 77.0 °F 60.8 °F 57% 30.07 in 10.0 mi SW 11.5 mph - N/A   Mostly Cloudy
11:15 AM 75.2 °F 62.6 °F 65% 30.07 in 10.0 mi SW 15.0 mph - N/A   Mostly Cloudy
11:35 AM 75.2 °F 60.8 °F 61% 30.08 in 10.0 mi West 11.5 mph - N/A   Overcast
11:55 AM 73.4 °F 62.6 °F 69% 30.10 in 10.0 mi WSW 10.4 mph - N/A   Overcast
12:15 PM 71.6 °F 62.6 °F 73% 30.11 in 10.0 mi NNW 10.4 mph - 0.01 in   Mostly Cloudy
12:35 PM 69.8 °F 60.8 °F 73% 30.10 in 10.0 mi North 9.2 mph - 0.01 in   Overcast
12:55 PM 68.0 °F 60.8 °F 78% 30.09 in 9.0 mi North 3.5 mph - 0.01 in   Mostly Cloudy
1:15 PM 66.2 °F 60.8 °F 83% 30.08 in 8.0 mi ENE 3.5 mph - N/A   Overcast
1:35 PM 66.2 °F 62.6 °F 88% 30.04 in 10.0 mi East 4.6 mph - N/A   Mostly Cloudy
1:55 PM 68.0 °F 62.6 °F 83% 30.04 in 10.0 mi ESE 6.9 mph - N/A   Partly Cloudy
2:15 PM 69.8 °F 62.6 °F 78% 30.04 in 10.0 mi East 5.8 mph - N/A   Clear
2:55 PM - - N/A% 30.02 in - East 6.9 mph - N/A   Unknown
3:15 PM 73.4 °F 64.4 °F 73% 30.03 in 10.0 mi East 4.6 mph - N/A   Partly Cloudy
4:15 PM 77.0 °F 66.2 °F 69% 30.01 in 10.0 mi South 3.5 mph - N/A   Scattered Clouds
4:35 PM 75.2 °F 64.4 °F 69% 30.02 in 10.0 mi ESE 4.6 mph - N/A   Mostly Cloudy
5:15 PM 75.2 °F 64.4 °F 69% 30.03 in 10.0 mi Calm Calm - N/A   Mostly Cloudy
5:35 PM 75.2 °F 64.4 °F 69% 30.02 in 10.0 mi Calm Calm - N/A   Scattered Clouds
5:56 PM 75.2 °F 64.4 °F 69% 30.02 in 10.0 mi East 3.5 mph - N/A   Clear
6:35 PM 73.4 °F 64.4 °F 73% 30.04 in 10.0 mi NE 4.6 mph - N/A   Mostly Cloudy
6:55 PM 73.4 °F 64.4 °F 73% 30.04 in 10.0 mi ENE 5.8 mph - N/A   Mostly Cloudy
7:15 PM 71.6 °F 64.4 °F 78% 30.04 in 10.0 mi East 5.8 mph - N/A   Clear
7:35 PM 71.6 °F 64.4 °F 78% 30.03 in 10.0 mi East 4.6 mph - N/A   Partly Cloudy
8:36 PM 69.8 °F 62.6 °F 78% 30.05 in 10.0 mi NE 5.8 mph - N/A   Clear
8:55 PM 69.8 °F 62.6 °F 78% 30.07 in 10.0 mi NNE 5.8 mph - N/A   Partly Cloudy
9:35 PM 69.8 °F 60.8 °F 73% 30.07 in 10.0 mi ENE 8.1 mph - N/A   Clear
9:55 PM 69.8 °F 60.8 °F 73% 30.07 in 10.0 mi East 8.1 mph - N/A   Clear
10:15 PM 69.8 °F 60.8 °F 73% 30.06 in 10.0 mi East 9.2 mph - N/A   Clear
10:35 PM 69.8 °F 60.8 °F 73% 30.07 in 10.0 mi East 6.9 mph - N/A   Clear
10:55 PM 68.0 °F 60.8 °F 78% 30.08 in 10.0 mi ESE 4.6 mph - N/A   Clear
11:55 PM 66.2 °F 60.8 °F 83% 30.09 in 10.0 mi Calm Calm - N/A   Clear